Meteo Giornale » Osservazioni meteo Messico » Mexico City-Licenci

ore: 19:57 - Osservazioni Meteo Mexico City-Licenci
Lat. 19° 26' N Lon. 99° 6' W Alt. 2238 metri s.l.m.

molto_nuvoloso America/Mexico_City

22 °C

Molto Nuvoloso

Temp. 24 Ore

12 °C

26 °C

Nord-Est

25.9 Km/h

Dew point 10 °C

Umidità 46 %

Visibilità  13 Km

Il sole sorge alle ore 07:04

Il sole tramonta alle ore 20:19

Data e Ora Cielo e Fenomeni T °C DP °C Um. % Pres. hPa Vis. km Vento km/h
Oggi h: 19:57 molto_nuvoloso Molto Nuvoloso 22 10 46 1026 13 NE 25.9
Oggi h: 19:45 coperto_pioggia Pioggia Debole 22 8 40 1026 11 E/NE 9.3
Oggi h: 19:25 coperto_pioggia Pioggia Debole 22 9 43 1027 11 E/NE 22.2
Oggi h: 19:04 molto_nuvoloso Molto Nuvoloso 24 8 35 1026 10 NE 31.5
Oggi h: 18:49 molto_nuvoloso Molto Nuvoloso 24 8 35 1026 10 NE 31.5
Oggi h: 18:08 molto_nuvoloso Molto Nuvoloso 24 8 35 1025 10 E/NE 27.8
Oggi h: 17:43 molto_nuvoloso Molto Nuvoloso 26 8 31 1025 10 NE 31.5
Oggi h: 16:44 molto_nuvoloso Molto Nuvoloso 26 8 31 1026 10 NE 22.2
Oggi h: 15:45 nuvoloso Nuvoloso 26 7 29 1026 10 N 18.5
Oggi h: 14:46 poco_nuvoloso Poco Nuvoloso 25 6 29 1027 10 NE 18.5
Oggi h: 13:48 poco_nuvoloso Poco Nuvoloso 24 5 29 1028 13 NE 22.2
Oggi h: 13:47 poco_nuvoloso Poco Nuvoloso 24 6 31 1028 13 N/NE 18.5
Oggi h: 12:46 poco_nuvoloso Poco Nuvoloso 22 8 40 1029 10 NE 9.3
Oggi h: 12:23 poco_nuvoloso Poco Nuvoloso 22 9 43 1029 10 N 0
Oggi h: 11:48 poco_nuvoloso Poco Nuvoloso 20 9 49 1030 10 E 9.3
Oggi h: 11:39 poco_nuvoloso Poco Nuvoloso 20 9 49 1030 10 E/NE 7.4
Oggi h: 10:42 poco_nuvoloso Poco Nuvoloso 18 10 59 1030 10 E/NE 11.1
Oggi h: 09:50 poco_nuvoloso Poco Nuvoloso 16 11 72 1030 10 N 5.5
Oggi h: 08:47 poco_nuvoloso Poco Nuvoloso 14 11 82 1030 10 E/NE 9.3
Oggi h: 07:47 poco_nuvoloso Poco Nuvoloso 13 10 81 1030 13 N 0
Oggi h: 06:49 nuvoloso Nuvoloso 12 10 87 1030 10 N 0
Oggi h: 05:45 molto_nuvoloso Molto Nuvoloso 12 9 81 1029 13 N 0
Oggi h: 05:21 molto_nuvoloso Molto Nuvoloso 12 10 87 1029 10 E 11.1
Oggi h: 04:47 molto_nuvoloso Molto Nuvoloso 14 11 82 1029 10 N 0
Oggi h: 03:51 coperto Coperto 14 10 76 1029 10 N 0
Oggi h: 02:53 coperto Coperto 14 11 82 1029 10 E/NE 9.3
Oggi h: 01:52 molto_nuvoloso Molto Nuvoloso 14 11 82 1029 10 N 9.3
Oggi h: 00:43 molto_nuvoloso Molto Nuvoloso 15 11 76 1030 19 E 9.3
Ieri h: 23:45 molto_nuvoloso Molto Nuvoloso 15 11 76 1029 19 E/NE 9.3
Ieri h: 22:47 molto_nuvoloso Molto Nuvoloso 14 11 82 1029 19 O/SO 9.3
Ieri h: 21:46 molto_nuvoloso Molto Nuvoloso 14 11 82 1029 19 O 9.3
Ieri h: 20:55 coperto Coperto 14 11 82 1029 11 O/SO 13
Ieri h: 20:45 coperto_pioggia Pioggia Debole 14 11 82 1029 11 O 20.3
Ieri h: 20:41 coperto_pioggia Pioggia Debole 14 11 82 1029 11 O/SO 20.3